| time (UTC) | temp C | wind direction | speed KPH | gust KPH | rain 1hr cm | rain 24hr cm | rain mn cm | humidity % | barometer mb |
| 20260905163009 | 16 | 290 | 24.1 | 0.0 | 0.00 | 0.00 | 0.00 | 71 | 1011.3 |
| 20260905161509 | 15 | 290 | 24.1 | 0.0 | 0.00 | 0.00 | 0.00 | 82 | 1011.1 |
| 20260905160010 | 15 | 290 | 17.7 | 0.0 | 0.00 | 0.00 | 0.00 | 82 | 1011.1 |
| 20260905154509 | 15 | 290 | 17.7 | 0.0 | 0.00 | 0.00 | 0.00 | 82 | 1011.3 |
| 20260905153011 | 15 | 270 | 22.5 | 0.0 | 0.00 | 0.00 | 0.00 | 82 | 1011.3 |
| 20260905151509 | 17 | 270 | 22.5 | 0.0 | 0.00 | 0.00 | 0.00 | 69 | 1010.7 |
| 20260905150010 | 17 | 290 | 29.0 | 0.0 | 0.00 | 0.00 | 0.00 | 69 | 1010.7 |
| 20260905144510 | 19 | 290 | 29.0 | 0.0 | 0.00 | 0.00 | 0.00 | 57 | 1009.6 |
| 20260905143009 | 19 | 250 | 29.0 | 0.0 | 0.00 | 0.00 | 0.00 | 57 | 1009.6 |
| 20260905141510 | 19 | 250 | 29.0 | 0.0 | 0.00 | 0.00 | 0.00 | 56 | 1009.8 |
| 20260905140009 | 19 | 260 | 33.8 | 0.0 | 0.00 | 0.00 | 0.00 | 56 | 1009.8 |
| 20260905134509 | 21 | 260 | 33.8 | 0.0 | 0.00 | 0.00 | 0.00 | 53 | 1009.4 |
| 20260905133010 | 21 | 250 | 24.1 | 0.0 | 0.00 | 0.00 | 0.00 | 53 | 1009.4 |
| 20260905131509 | 20 | 250 | 24.1 | 0.0 | 0.00 | 0.00 | 0.00 | 56 | 1009.6 |
| 20260905130010 | 20 | 260 | 22.5 | 0.0 | 0.00 | 0.00 | 0.00 | 56 | 1009.6 |
| 20260905124510 | 20 | 260 | 22.5 | 0.0 | 0.00 | 0.00 | 0.00 | 57 | 1009.7 |
| 20260905123009 | 20 | 260 | 27.4 | 0.0 | 0.00 | 0.00 | 0.00 | 57 | 1009.7 |
| 20260905121509 | 20 | 260 | 27.4 | 0.0 | 0.00 | 0.00 | 0.00 | 54 | 1009.6 |
| 20260905120010 | 20 | 270 | 27.4 | 0.0 | 0.00 | 0.00 | 0.00 | 54 | 1009.6 |
| 20260905114510 | 20 | 270 | 27.4 | 0.0 | 0.00 | 0.00 | 0.00 | 52 | 1009.4 |
| 20260905113009 | 20 | 260 | 20.9 | 0.0 | 0.00 | 0.00 | 0.00 | 52 | 1009.4 |
| 20260905111509 | 19 | 260 | 20.9 | 0.0 | 0.00 | 0.00 | 0.00 | 60 | 1009.6 |
| 20260905110009 | 19 | 250 | 17.7 | 0.0 | 0.00 | 0.00 | 0.00 | 60 | 1009.6 |
| 20260905104509 | 19 | 250 | 17.7 | 0.0 | 0.00 | 0.00 | 0.00 | 56 | 1009.7 |
| 20260905103009 | 19 | 260 | 27.4 | 0.0 | 0.00 | 0.00 | 0.00 | 56 | 1009.7 |
| 20260905101510 | 19 | 260 | 27.4 | 0.0 | 0.00 | 0.00 | 0.00 | 58 | 1009.7 |
| 20260905100009 | 19 | 260 | 24.1 | 0.0 | 0.00 | 0.00 | 0.00 | 58 | 1009.7 |
| 20260905094509 | 18 | 260 | 20.9 | 0.0 | 0.00 | 0.00 | 0.00 | 61 | 1009.5 |
| 20260905093010 | 18 | 260 | 20.9 | 0.0 | 0.00 | 0.00 | 0.00 | 61 | 1009.5 |
| 20260905091509 | 18 | 260 | 20.9 | 0.0 | 0.00 | 0.00 | 0.00 | 67 | 1009.5 |
| 20260905090010 | 18 | 270 | 20.9 | 0.0 | 0.00 | 0.00 | 0.00 | 67 | 1009.5 |
| 20260905084509 | 17 | 270 | 17.7 | 0.0 | 0.00 | 0.00 | 0.00 | 70 | 1009.2 |
| 20260905083009 | 17 | 270 | 17.7 | 0.0 | 0.00 | 0.00 | 0.00 | 70 | 1009.2 |
| 20260905081510 | 16 | 270 | 17.7 | 0.0 | 0.00 | 0.00 | 0.00 | 71 | 1008.9 |
| 20260905080010 | 16 | 250 | 19.3 | 0.0 | 0.00 | 0.00 | 0.00 | 71 | 1008.9 |
| 20260905074510 | 16 | 250 | 19.3 | 0.0 | 0.00 | 0.00 | 0.00 | 74 | 1008.8 |
| 20260905073009 | 16 | 260 | 17.7 | 0.0 | 0.00 | 0.00 | 0.00 | 74 | 1008.8 |
| 20260905071509 | 15 | 260 | 17.7 | 0.0 | 0.00 | 0.00 | 0.00 | 77 | 1008.6 |
| 20260905070009 | 15 | 260 | 17.7 | 0.0 | 0.00 | 0.00 | 0.00 | 77 | 1008.6 |
| 20260905064510 | 15 | 260 | 17.7 | 0.0 | 0.00 | 0.00 | 0.00 | 79 | 1008.3 |
| 20260905063010 | 15 | 260 | 17.7 | 0.0 | 0.00 | 0.00 | 0.00 | 79 | 1008.3 |
| 20260905061510 | 14 | 260 | 16.1 | 0.0 | 0.00 | 0.00 | 0.00 | 81 | 1008.0 |
| 20260905060009 | 14 | 260 | 16.1 | 0.0 | 0.00 | 0.00 | 0.00 | 81 | 1008.0 |
| 20260905054510 | 14 | 260 | 16.1 | 0.0 | 0.00 | 0.00 | 0.00 | 82 | 1007.9 |
| 20260905053021 | 14 | 260 | 17.7 | 0.0 | 0.00 | 0.00 | 0.00 | 82 | 1007.9 |
| 20260905051509 | 14 | 260 | 17.7 | 0.0 | 0.00 | 0.00 | 0.00 | 82 | 1007.5 |
| 20260905050010 | 14 | 260 | 16.1 | 0.0 | 0.00 | 0.00 | 0.00 | 82 | 1007.5 |
| 20260905044509 | 15 | 260 | 16.1 | 0.0 | 0.00 | 0.00 | 0.00 | 81 | 1007.3 |
| 20260905043010 | 15 | 260 | 16.1 | 0.0 | 0.00 | 0.00 | 0.00 | 81 | 1007.3 |
| 20260905041509 | 15 | 260 | 17.7 | 0.0 | 0.00 | 0.00 | 0.00 | 81 | 1007.0 |
| 20260905040009 | 15 | 260 | 17.7 | 0.0 | 0.00 | 0.00 | 0.00 | 81 | 1007.0 |
| 20260905034510 | 15 | 260 | 14.5 | 0.0 | 0.00 | 0.00 | 0.00 | 81 | 1006.6 |
| 20260905033010 | 15 | 260 | 14.5 | 0.0 | 0.00 | 0.00 | 0.00 | 81 | 1006.6 |
| 20260905031510 | 15 | 260 | 14.5 | 0.0 | 0.00 | 0.00 | 0.00 | 82 | 1006.4 |
| 20260905030008 | 15 | 260 | 16.1 | 0.0 | 0.00 | 0.00 | 0.00 | 82 | 1006.4 |
| 20260904204510 | 16 | 250 | 17.7 | 0.0 | 0.00 | 0.00 | 0.00 | 90 | 1002.7 |
| 20260904203009 | 16 | 260 | 16.1 | 0.0 | 0.00 | 0.00 | 0.00 | 90 | 1002.7 |
| 20260904201510 | 16 | 260 | 16.1 | 0.0 | 0.00 | 0.00 | 0.00 | 90 | 1002.5 |
| 20260904200009 | 16 | 260 | 16.1 | 0.0 | 0.00 | 0.00 | 0.00 | 90 | 1002.5 |
| 20260904193009 | 16 | 240 | 17.7 | 0.0 | 0.00 | 0.00 | 0.00 | 91 | 1002.7 |
| 20260904191509 | 16 | 240 | 17.7 | 0.0 | 0.00 | 0.00 | 0.00 | 91 | 1001.8 |
| 20260904190009 | 16 | 250 | 16.1 | 0.0 | 0.00 | 0.00 | 0.00 | 91 | 1001.8 |
| 20260904184509 | 17 | 230 | 16.1 | 0.0 | 0.00 | 0.00 | 0.00 | 87 | 1001.7 |
| 20260904183010 | 17 | 230 | 16.1 | 0.0 | 0.00 | 0.00 | 0.00 | 87 | 1001.7 |
| 20260904181509 | 17 | 240 | 19.3 | 0.0 | 0.00 | 0.00 | 0.00 | 84 | 1001.5 |
| 20260904180009 | 17 | 240 | 19.3 | 0.0 | 0.00 | 0.00 | 0.00 | 84 | 1001.5 |
| 20260904174509 | 18 | 240 | 19.3 | 0.0 | 0.00 | 0.00 | 0.00 | 80 | 1001.3 |
| 20260904173010 | 18 | 260 | 19.3 | 0.0 | 0.00 | 0.00 | 0.00 | 80 | 1001.3 |
| 20260904171509 | 18 | 260 | 19.3 | 0.0 | 0.00 | 0.00 | 0.00 | 82 | 1001.3 |
| 20260904170010 | 18 | 260 | 20.9 | 0.0 | 0.00 | 0.00 | 0.00 | 82 | 1001.3 |
| 20260904164509 | 19 | 260 | 20.9 | 0.0 | 0.00 | 0.00 | 0.00 | 89 | 1001.1 |